7 * 24
多渠道服务支持
STARLINK-30361是美国太空探索技术公司星链互联网卫星星座的一员,由美国于2023年9月1日发射升空,星链项目旨在为全球提供高速低延迟互联网接入服务。该卫星运行在近地轨道,依靠大型星座组网实现全球覆盖,进一步扩充了星链星座的服务能力。
美国
(US)
| 数据来源 | 国际轨道数据 |
| 星历时间: | 2026-09-02T15:59:07+0800 1天前 查看轨道信息 |
| 半长轴: | 6861.194km |
| 偏心率: | 0.0001144 |
| 轨道倾角: | 42.999° |
| 近地点辐角 | 273.733° |
| 升交点赤经 | 254.704° |
| 平近点角 | 86.339° |
| 近地点: | 482.272km |
| 远地点: | 483.842km |
| 周期: | 94.267分钟 |
| 每日圈数: | 15.275776 |
| 事件ID | 空间交会对象 | 最接近时刻(TCA) | 交会距离 | 交会风险概率(CRP) | 交会风险指数(CRI) | 操作 |
|---|---|---|---|---|---|---|
| CDM_260905-020705-774306-386121 |
STARLINK-30361
(57743)
STARLINK-33896
(63861) | 2026-09-05T 02:07:12+0000 |
0.147 km
中距离 | 8.4716E-4 高风险 | 0.94 | |
| CDM_260827-182205-774306-356521 |
STARLINK-30361
(57743)
STARLINK-32687
(63565) | 2026-08-27T 18:22:47+0000 |
0.537 km
远距离 | 1.180812E-4 高风险 | 0.76 | |
| CDM_260905-095402-636605-774321 |
SIMSAT 2
(26366)
STARLINK-30361
(57743) | 2026-09-05T 09:54:11+0000 |
0.691 km
远距离 | 8.326279E-5 中风险 | 0.73 | |
| CDM_260903-093905-774306-356521 |
STARLINK-30361
(57743)
STARLINK-32687
(63565) | 2026-09-03T 09:39:39+0000 |
1.055 km
极远距离 | 1.445514E-5 中风险 | 0.58 | |
| CDM_260905-034105-774306-386121 |
STARLINK-30361
(57743)
STARLINK-33896
(63861) | 2026-09-05T 03:41:21+0000 |
1.580 km
极远距离 | 3.646057E-6 低风险 | 0.46 | |
| CDM_260903-111305-774306-356521 |
STARLINK-30361
(57743)
STARLINK-32687
(63565) | 2026-09-03T 11:13:49+0000 |
1.836 km
极远距离 | 2.405769E-6 低风险 | 0.43 | |
| CDM_260903-080505-774306-356522 |
STARLINK-30361
(57743)
STARLINK-32687
(63565) | 2026-09-03T 08:05:30+0000 |
2.953 km
极远距离 | 9.554946E-7 极低风险 | 0.35 |